[[{"header":{"parameterUnit":"m.s-1","parameterCategory":2,"la1":30.2991,"la2":30.254,"lo1":-89.0895,"lo2":-89.0444,"dy":0.0017,"dx":0.0017,"nx":28,"ny":28,"refTime":"2024-03-27T03:00:00:Z","depth":"0","parameterNumber":2,"parameterNumberName":"U-component_of_CURRENTS"},"data":[0,0,0,0,0,0,0,0,0,0,0,0,0,0,0,0,0,0,0,0,0,0,0,0,0,0,0,0,0,0,0,0,0,0,0,0,0,0,0,0,0,0,0,0,0,0,0,0,0,0,0,0,0,0,0,0,0,0,-0.193,-0.193,0,-0.1932,-0.1932,-0.1932,-0.1917,-0.1917,-0.1917,-0.1916,-0.1902,-0.1902,-0.1902,0,0,0,0,0,0,0,0,0,0,0,0,0,-0.1938,-0.1938,-0.193,-0.193,-0.193,-0.1932,-0.1932,-0.1932,-0.1917,-0.1917,-0.1917,-0.1916,-0.1902,-0.1902,-0.1902,0,0,0,0,0,0,0,0,0,0,0,0,0,-0.1936,-0.1938,-0.193,-0.1924,-0.1923,-0.1932,-0.1932,-0.1932,-0.1918,-0.1917,-0.1917,-0.1916,-0.1903,-0.1902,-0.1902,-0.1912,0,0,-0.1902,-0.1902,0,0,0,0,0,0,0,0,-0.1936,-0.1936,-0.1925,-0.1924,-0.1924,-0.1925,-0.193,-0.1925,-0.1918,-0.1919,-0.1916,-0.1916,-0.1909,-0.1909,-0.1909,-0.1912,-0.1911,-0.1902,-0.1902,-0.1902,-0.1902,0,0,0,0,0,0,0,-0.1936,-0.1936,-0.193,-0.1925,-0.1924,-0.1929,-0.1928,-0.1929,-0.1916,-0.1919,-0.1918,-0.1919,-0.1909,-0.1909,-0.1909,-0.1911,-0.1902,-0.1902,-0.1902,-0.1902,-0.193,-0.1931,0,0,0,0,0,0,-0.1937,-0.1936,-0.193,-0.193,-0.193,-0.1929,-0.1928,-0.1924,-0.1916,-0.1915,-0.192,-0.1919,-0.191,-0.1909,-0.1908,-0.1948,-0.1902,-0.1902,-0.1902,-0.193,-0.1931,-0.1931,0,0,0,0,0,0,-0.1937,-0.1936,-0.193,-0.1934,-0.1934,-0.193,-0.1926,-0.1925,-0.1922,-0.1918,-0.1916,-0.1918,-0.1909,-0.1908,-0.1909,-0.1946,-0.1902,-0.1902,-0.1929,-0.193,-0.1931,-0.2009,0,0,0,0,0,0,-0.1937,-0.1936,-0.1931,-0.1934,-0.1933,-0.1932,-0.1926,-0.1925,-0.1924,-0.1923,-0.1915,-0.1914,-0.1909,-0.1909,-0.1909,-0.1945,-0.1902,-0.1928,-0.1929,-0.1931,-0.2005,-0.2012,-0.2019,0,0,0,0,0,-0.1937,-0.193,-0.193,-0.193,-0.1927,-0.1932,-0.1932,-0.1928,-0.1925,-0.1923,-0.1921,-0.1914,-0.1919,-0.1909,-0.1909,-0.1946,-0.1927,-0.1929,-0.193,-0.2002,-0.2011,-0.2019,0,0,0,0,0,0,-0.1928,-0.1928,-0.1928,-0.1921,-0.1926,-0.193,-0.1925,-0.1929,-0.1926,-0.1923,-0.1919,-0.1917,-0.1933,-0.1922,-0.1912,-0.1957,-0.1924,-0.1926,-0.1979,-0.1987,-0.1993,-0.2059,-0.1902,0,0,0,0,0,-0.1926,-0.1918,-0.1926,-0.1918,-0.1921,-0.1925,-0.1925,-0.1927,-0.1928,-0.1926,-0.1922,-0.1924,-0.1942,-0.1948,-0.1947,-0.197,-0.1938,-0.1993,-0.2,-0.2006,-0.2058,-0.2048,-0.2059,-0.1937,-0.1937,-0.1937,0,0,-0.192,-0.1919,-0.1914,-0.1916,-0.1917,-0.1936,-0.1923,-0.1925,-0.1958,-0.1925,-0.1952,-0.1941,-0.1949,-0.1977,-0.1985,-0.1973,-0.2004,-0.2008,-0.2014,-0.2064,-0.2051,-0.2063,-0.2074,-0.1938,-0.1938,-0.1938,0,0,-0.1911,-0.1904,-0.19,-0.191,-0.1917,-0.1931,-0.1934,-0.194,-0.1959,-0.1975,-0.1976,-0.1998,-0.1989,-0.2033,-0.205,-0.2095,-0.2035,-0.2075,-0.2175,-0.2162,-0.2173,-0.2183,-0.2072,-0.2072,-0.2086,-0.2086,-0.2086,0,-0.1907,-0.1906,-0.1901,-0.1911,-0.1942,-0.1934,-0.1969,-0.1984,-0.1993,-0.2048,-0.1986,-0.2038,-0.2035,-0.213,-0.2152,-0.2119,-0.2059,-0.2143,-0.2174,-0.2183,-0.2191,-0.2077,-0.2075,-0.209,-0.2089,-0.2089,-0.2088,0,-0.1903,-0.191,-0.191,-0.1933,-0.197,-0.1983,-0.2029,-0.2071,-0.2082,-0.2109,-0.2172,-0.2149,-0.2199,-0.2189,-0.2191,-0.2272,-0.2185,-0.2175,-0.2158,-0.2209,-0.2082,-0.2079,-0.2095,-0.2094,-0.2093,-0.2092,0,0,-0.1872,-0.1904,-0.1902,-0.1957,-0.199,-0.2039,-0.2118,-0.2218,-0.2292,-0.2277,-0.2353,-0.2398,-0.2383,-0.2404,-0.2387,-0.2391,-0.2367,-0.2322,-0.2319,-0.2221,-0.2258,-0.2144,-0.2127,-0.2352,-0.2354,-0.2356,-0.2114,0,-0.1873,-0.1906,-0.1941,-0.2029,-0.2066,-0.2148,-0.2236,-0.2335,-0.2371,-0.2423,-0.2445,-0.2466,-0.2461,-0.2454,-0.2477,-0.2381,-0.2377,-0.243,-0.222,-0.2213,-0.2115,-0.213,-0.2059,-0.1837,-0.211,-0.211,-0.2109,0,-0.1861,-0.1894,-0.1955,-0.2124,-0.2158,-0.222,-0.2412,-0.249,-0.2585,-0.2609,-0.2654,-0.2612,-0.2635,-0.2582,-0.2504,-0.2523,-0.2438,-0.2352,-0.234,-0.223,-0.2099,-0.1847,-0.182,-0.1772,-0.2104,-0.2104,-0.2105,0,-0.1844,-0.1939,-0.2002,-0.2038,-0.2187,-0.2293,-0.2404,-0.254,-0.2616,-0.2693,-0.2663,-0.2715,-0.2624,-0.2595,-0.2431,-0.2461,-0.2269,-0.2274,-0.2095,-0.2079,-0.1985,-0.196,-0.1912,-0.2265,-0.2265,-0.2266,-0.2267,0,-0.1836,-0.19,-0.1997,-0.2028,-0.2175,-0.2303,-0.2462,-0.2577,-0.2664,-0.2703,-0.2726,-0.2673,-0.2621,-0.249,-0.2423,-0.2208,-0.2258,-0.2125,-0.2041,-0.1996,-0.1976,-0.1903,-0.1921,-0.2257,-0.2259,-0.226,-0.2262,0,-0.1787,-0.1834,-0.1918,-0.2075,-0.2147,-0.2248,-0.2465,-0.2558,-0.2627,-0.2641,-0.2635,-0.2586,-0.241,-0.2309,-0.2165,-0.2111,-0.1912,-0.1905,-0.1803,-0.1717,-0.1546,-0.1571,-0.1451,-0.1402,-0.1677,-0.1673,-0.167,0,-0.1761,-0.1775,-0.1911,-0.197,-0.2035,-0.2209,-0.2324,-0.251,-0.2565,-0.2565,-0.2519,-0.236,-0.2242,-0.1953,-0.1834,-0.1659,-0.1698,-0.1512,-0.1627,-0.1541,-0.1508,-0.1535,-0.1507,-0.147,-0.1465,-0.1461,-0.1458,0,-0.1706,-0.1723,-0.1783,-0.1871,-0.1986,-0.2153,-0.2304,-0.2331,-0.2483,-0.2427,-0.2316,-0.2217,-0.1952,-0.1727,-0.1509,-0.143,-0.1469,-0.143,-0.14,-0.1413,-0.1386,-0.1293,-0.1553,-0.1425,-0.1429,-0.1431,-0.1433,-0.1434,-0.1648,-0.165,-0.1696,-0.1787,-0.1922,-0.2043,-0.2102,-0.2184,-0.2201,-0.2078,-0.2093,-0.1874,-0.1691,-0.1368,-0.1262,-0.1067,-0.1175,-0.1064,-0.1104,-0.114,-0.1128,-0.1277,-0.1041,-0.1042,-0.1043,-0.1044,-0.1044,0,-0.1576,-0.1583,-0.1638,-0.1738,-0.1824,-0.1943,-0.2051,-0.2023,-0.1925,-0.1836,-0.1707,-0.1486,-0.1245,-0.1093,-0.088,-0.079,-0.0801,-0.0764,-0.0829,-0.0822,-0.0979,-0.1009,-0.0686,-0.0686,-0.0687,-0.0687,-0.0687,-0.0687,-0.1543,-0.153,-0.1535,-0.1604,-0.1686,-0.173,-0.1744,-0.1649,-0.1566,-0.1328,-0.1186,-0.114,-0.1034,-0.0894,-0.0697,-0.0632,-0.062,-0.0578,-0.06,-0.0758,-0.0791,-0.0823,-0.0857,-0.0508,-0.0508,-0.0418,-0.0417,-0.0416]},{"header":{"parameterUnit":"m.s-1","parameterCategory":2,"la1":30.2991,"la2":30.254,"lo1":-89.0895,"lo2":-89.0444,"dy":0.0017,"dx":0.0017,"nx":28,"ny":28,"refTime":"2024-03-27T03:00:00:Z","depth":"0","parameterNumber":3,"parameterNumberName":"V-component_of_CURRENTS"},"data":[0,0,0,0,0,0,0,0,0,0,0,0,0,0,0,0,0,0,0,0,0,0,0,0,0,0,0,0,0,0,0,0,0,0,0,0,0,0,0,0,0,0,0,0,0,0,0,0,0,0,0,0,0,0,0,0,0,0,-0.0473,-0.0472,0,-0.044,-0.044,-0.0439,-0.0414,-0.0414,-0.0413,-0.0413,-0.0357,-0.0356,-0.0354,0,0,0,0,0,0,0,0,0,0,0,0,0,-0.0496,-0.0496,-0.0473,-0.0472,-0.0472,-0.044,-0.044,-0.0439,-0.0414,-0.0413,-0.0413,-0.0413,-0.0357,-0.0356,-0.0354,0,0,0,0,0,0,0,0,0,0,0,0,0,-0.0477,-0.0495,-0.0473,-0.0456,-0.0454,-0.044,-0.044,-0.0439,-0.0414,-0.0413,-0.0413,-0.0413,-0.0358,-0.0356,-0.0354,-0.0349,0,0,-0.0348,-0.0347,0,0,0,0,0,0,0,0,-0.0478,-0.0476,-0.0458,-0.0457,-0.0455,-0.0431,-0.0427,-0.0408,-0.0414,-0.0429,-0.0413,-0.0413,-0.038,-0.0376,-0.0371,-0.0347,-0.0344,-0.0348,-0.0347,-0.0346,-0.0345,0,0,0,0,0,0,0,-0.0479,-0.0477,-0.046,-0.0458,-0.0456,-0.0444,-0.0441,-0.0423,-0.0406,-0.0427,-0.0426,-0.0422,-0.0378,-0.0373,-0.0369,-0.0343,-0.0348,-0.0346,-0.0345,-0.0344,-0.0311,-0.0311,0,0,0,0,0,0,-0.0485,-0.0478,-0.0461,-0.0459,-0.0466,-0.0443,-0.044,-0.0439,-0.0407,-0.0402,-0.0423,-0.0421,-0.0376,-0.0371,-0.0367,-0.036,-0.0346,-0.0344,-0.0343,-0.031,-0.0311,-0.0311,0,0,0,0,0,0,-0.0485,-0.0484,-0.0462,-0.0468,-0.0464,-0.0444,-0.0442,-0.0438,-0.0432,-0.0403,-0.0398,-0.0421,-0.0376,-0.037,-0.0355,-0.0357,-0.0343,-0.0342,-0.031,-0.0311,-0.0311,-0.0344,0,0,0,0,0,0,-0.0486,-0.0484,-0.0486,-0.0468,-0.0464,-0.0458,-0.0442,-0.0438,-0.0431,-0.0429,-0.04,-0.0394,-0.0375,-0.0358,-0.0353,-0.0354,-0.034,-0.031,-0.031,-0.0311,-0.0343,-0.0346,-0.0348,0,0,0,0,0,-0.0487,-0.049,-0.0487,-0.0485,-0.0467,-0.0458,-0.0455,-0.0439,-0.0431,-0.0432,-0.0412,-0.0395,-0.0357,-0.0357,-0.0351,-0.0351,-0.031,-0.031,-0.0311,-0.0342,-0.0345,-0.0348,0,0,0,0,0,0,-0.0498,-0.0487,-0.0483,-0.0482,-0.0474,-0.0454,-0.0452,-0.0442,-0.0428,-0.0425,-0.0398,-0.0391,-0.0382,-0.0362,-0.0362,-0.0344,-0.0331,-0.033,-0.0356,-0.0359,-0.0362,-0.0342,-0.0339,0,0,0,0,0,-0.0503,-0.0503,-0.0491,-0.049,-0.0488,-0.0472,-0.0467,-0.0457,-0.0441,-0.0435,-0.0416,-0.0395,-0.038,-0.0366,-0.0353,-0.0339,-0.0284,-0.0336,-0.0339,-0.0341,-0.0321,-0.0211,-0.02,-0.0313,-0.0313,-0.0313,0,0,-0.0508,-0.0501,-0.0501,-0.0493,-0.0485,-0.0491,-0.0468,-0.0462,-0.0465,-0.0431,-0.0427,-0.0407,-0.0381,-0.037,-0.0363,-0.0351,-0.0292,-0.0342,-0.0344,-0.0322,-0.021,-0.0198,-0.0188,-0.0313,-0.0313,-0.0313,0,0,-0.0519,-0.0511,-0.0518,-0.0514,-0.0507,-0.0502,-0.0503,-0.0488,-0.0478,-0.0471,-0.0451,-0.0422,-0.0407,-0.0378,-0.0364,-0.037,-0.0316,-0.0378,-0.0366,-0.026,-0.0249,-0.0238,-0.0202,-0.0187,-0.0372,-0.0372,-0.0372,0,-0.0525,-0.0534,-0.0519,-0.0525,-0.0533,-0.0511,-0.0529,-0.0513,-0.0496,-0.0472,-0.0475,-0.041,-0.0404,-0.0356,-0.0373,-0.0373,-0.0322,-0.0358,-0.026,-0.0248,-0.0236,-0.0201,-0.0184,-0.0374,-0.0373,-0.0373,-0.0373,0,-0.0543,-0.0553,-0.0556,-0.0564,-0.057,-0.0577,-0.0566,-0.056,-0.0547,-0.0509,-0.0458,-0.0427,-0.0373,-0.0383,-0.0388,-0.0311,-0.031,-0.0281,-0.0247,-0.0226,-0.0192,-0.0174,-0.0376,-0.0375,-0.0375,-0.0375,0,0,-0.0555,-0.0568,-0.0572,-0.0597,-0.0595,-0.0611,-0.0607,-0.0586,-0.054,-0.0513,-0.0437,-0.0431,-0.0371,-0.035,-0.0331,-0.0258,-0.0176,-0.0243,-0.0237,-0.02,0.0022,-0.0071,-0.0061,-0.0115,-0.0111,-0.0108,-0.0005,0,-0.0579,-0.0614,-0.0612,-0.066,-0.0684,-0.0671,-0.0659,-0.0629,-0.0566,-0.0477,-0.041,-0.033,-0.0367,-0.0321,-0.0257,-0.018,-0.0122,-0.0209,-0.0009,-0.0004,-0.008,-0.0039,-0.008,0.0003,0.0013,0.0016,0.0018,0,-0.0603,-0.0629,-0.0675,-0.0711,-0.0717,-0.0736,-0.0705,-0.0689,-0.0547,-0.0472,-0.0358,-0.027,-0.0178,-0.0189,-0.0043,-0.0093,-0.0045,0.0007,0.0014,-0.0037,-0.0061,-0.0006,0.0036,0.0105,0.0046,0.0044,0.0042,0,-0.064,-0.0683,-0.0731,-0.0743,-0.0759,-0.0778,-0.0788,-0.0683,-0.0614,-0.0442,-0.0328,-0.0194,-0.0106,-0.0004,0.0049,0.0036,0.022,0.0228,0.0185,0.0176,0.02,0.0186,0.0347,0.0354,0.0354,0.0354,0.0353,0,-0.0674,-0.0715,-0.0755,-0.0781,-0.0834,-0.0824,-0.0805,-0.0756,-0.0584,-0.0465,-0.0325,-0.0198,-0.0045,0.0068,0.0109,0.0179,0.0268,0.02,0.0218,0.0175,0.0159,0.0265,0.0305,0.0357,0.0357,0.0356,0.0355,0,-0.0705,-0.0723,-0.0786,-0.0828,-0.0856,-0.0893,-0.0863,-0.0794,-0.0634,-0.046,-0.0393,-0.0165,-0.0044,0.0069,0.0234,0.0243,0.036,0.0325,0.0215,0.0216,0.0222,0.0259,0.0438,0.049,0.0326,0.0325,0.0324,0,-0.0723,-0.0753,-0.084,-0.0892,-0.0925,-0.0968,-0.0967,-0.0845,-0.0719,-0.0463,-0.0352,-0.0176,-0.0075,0.01,0.0164,0.0241,0.0324,0.0259,0.0225,0.0229,0.0287,0.0313,0.0348,0.0232,0.023,0.0228,0.0227,0,-0.0758,-0.0781,-0.0837,-0.0947,-0.0996,-0.102,-0.0986,-0.0882,-0.0688,-0.0542,-0.0349,-0.0262,-0.0101,-0.0024,0.0075,0.0117,0.03,0.0226,0.0318,0.0295,0.0259,0.0313,0.0105,0.0214,0.0215,0.0216,0.0217,0.0218,-0.0781,-0.0828,-0.0903,-0.1009,-0.1062,-0.1043,-0.1025,-0.0917,-0.0774,-0.054,-0.0448,-0.0341,-0.0174,-0.0055,0.0015,0.015,0.0183,0.0196,0.0257,0.0296,0.0304,0.0006,0.0073,0.0073,0.0074,0.0074,0.0074,0,-0.0805,-0.0866,-0.0966,-0.1061,-0.1113,-0.1124,-0.101,-0.0938,-0.081,-0.0663,-0.056,-0.0389,-0.0264,-0.0072,0.0109,0.019,0.0257,0.0261,0.0344,0.0395,0.0218,0.0168,0.0152,0.0152,0.0152,0.0152,0.0152,0.0152,-0.0818,-0.0906,-0.0962,-0.1082,-0.1144,-0.1129,-0.1059,-0.0956,-0.0822,-0.0678,-0.0562,-0.0489,-0.0184,0.0125,0.0323,0.0343,0.0491,0.0442,0.0558,0.0464,0.0464,0.0464,0.0429,0.0468,0.0468,0.0714,0.0716,0.0718]}],[{"header":{"parameterUnit":"m.s-1","parameterCategory":2,"la1":30.2991,"la2":30.254,"lo1":-89.0895,"lo2":-89.0444,"dy":0.0017,"dx":0.0017,"nx":28,"ny":28,"refTime":"2024-03-27T03:00:00:Z","depth":"2","parameterNumber":2,"parameterNumberName":"U-component_of_CURRENTS"},"data":[0,0,0,0,0,0,0,0,0,0,0,0,0,0,0,0,0,0,0,0,0,0,0,0,0,0,0,0,0,0,0,0,0,0,0,0,0,0,0,0,0,0,0,0,0,0,0,0,0,0,0,0,0,0,0,0,0,0,-0.1746,-0.1747,0,-0.1753,-0.1753,-0.1753,-0.1746,-0.1746,-0.1745,-0.1745,-0.1746,-0.1746,-0.1746,0,0,0,0,0,0,0,0,0,0,0,0,0,-0.1742,-0.1742,-0.1746,-0.1747,-0.1747,-0.1753,-0.1753,-0.1753,-0.1746,-0.1746,-0.1745,-0.1745,-0.1746,-0.1746,-0.1747,0,0,0,0,0,0,0,0,0,0,0,0,0,-0.1745,-0.1742,-0.1746,-0.1744,-0.1744,-0.1753,-0.1753,-0.1753,-0.1746,-0.1746,-0.1745,-0.1745,-0.1746,-0.1746,-0.1747,-0.1756,0,0,-0.1748,-0.1748,0,0,0,0,0,0,0,0,-0.1745,-0.1745,-0.1744,-0.1744,-0.1744,-0.1749,-0.1752,-0.1754,-0.1746,-0.1744,-0.1745,-0.1745,-0.1747,-0.1747,-0.1749,-0.1756,-0.1756,-0.1748,-0.1748,-0.1748,-0.1748,0,0,0,0,0,0,0,-0.1745,-0.1745,-0.1748,-0.1745,-0.1745,-0.1748,-0.1748,-0.1753,-0.1747,-0.1745,-0.1744,-0.1746,-0.1747,-0.1748,-0.1749,-0.1756,-0.1748,-0.1748,-0.1748,-0.1748,-0.1787,-0.1788,0,0,0,0,0,0,-0.1745,-0.1745,-0.1748,-0.1749,-0.1744,-0.1749,-0.1748,-0.1747,-0.1747,-0.1747,-0.1746,-0.1746,-0.1748,-0.1748,-0.1749,-0.1787,-0.1748,-0.1748,-0.1749,-0.1786,-0.1787,-0.1788,0,0,0,0,0,0,-0.1745,-0.1745,-0.1748,-0.1748,-0.1748,-0.1749,-0.1748,-0.1748,-0.175,-0.1749,-0.1748,-0.1749,-0.1748,-0.1748,-0.1755,-0.1786,-0.1749,-0.1749,-0.1785,-0.1787,-0.1788,-0.1847,0,0,0,0,0,0,-0.1744,-0.1745,-0.1744,-0.1747,-0.1748,-0.1753,-0.1748,-0.1748,-0.1752,-0.1751,-0.1751,-0.1751,-0.1747,-0.1755,-0.1756,-0.1786,-0.1749,-0.1784,-0.1786,-0.1787,-0.1844,-0.185,-0.1855,0,0,0,0,0,-0.1744,-0.1742,-0.1743,-0.1744,-0.1747,-0.1754,-0.1754,-0.1753,-0.1753,-0.1754,-0.1756,-0.1751,-0.1765,-0.1756,-0.1757,-0.1788,-0.1784,-0.1785,-0.1787,-0.1842,-0.1849,-0.1855,0,0,0,0,0,0,-0.1737,-0.1741,-0.1743,-0.1741,-0.1748,-0.1753,-0.1752,-0.1756,-0.176,-0.1759,-0.1757,-0.1757,-0.1777,-0.177,-0.1759,-0.1802,-0.1775,-0.1778,-0.1816,-0.1823,-0.1829,-0.1869,-0.1749,0,0,0,0,0,-0.1737,-0.1735,-0.1743,-0.1741,-0.1745,-0.1751,-0.1754,-0.1757,-0.1761,-0.1762,-0.1763,-0.1768,-0.1786,-0.1793,-0.1797,-0.1818,-0.1803,-0.1839,-0.1845,-0.185,-0.1882,-0.1893,-0.1903,-0.1794,-0.1794,-0.1794,0,0,-0.1733,-0.1735,-0.1734,-0.174,-0.1744,-0.176,-0.1751,-0.1757,-0.1782,-0.1762,-0.1785,-0.1784,-0.1794,-0.182,-0.1829,-0.1818,-0.1859,-0.1852,-0.1856,-0.1887,-0.1896,-0.1907,-0.1917,-0.1795,-0.1795,-0.1795,0,0,-0.1729,-0.1728,-0.173,-0.174,-0.175,-0.1761,-0.1765,-0.1774,-0.1787,-0.1805,-0.1808,-0.1832,-0.1835,-0.1866,-0.188,-0.192,-0.1886,-0.191,-0.1979,-0.1988,-0.1998,-0.2006,-0.1945,-0.1948,-0.1918,-0.1918,-0.1918,0,-0.1728,-0.1732,-0.1732,-0.1743,-0.1762,-0.1765,-0.1788,-0.1804,-0.1816,-0.1846,-0.1816,-0.1869,-0.1869,-0.1942,-0.1958,-0.1939,-0.1909,-0.1952,-0.1997,-0.2006,-0.2014,-0.1949,-0.1952,-0.1921,-0.192,-0.192,-0.192,0,-0.173,-0.174,-0.1742,-0.1764,-0.1787,-0.18,-0.1833,-0.1857,-0.1869,-0.1892,-0.1948,-0.195,-0.1995,-0.1991,-0.1991,-0.2059,-0.2004,-0.1999,-0.1983,-0.2029,-0.1956,-0.1958,-0.1925,-0.1924,-0.1923,-0.1922,0,0,-0.1708,-0.1739,-0.1739,-0.1768,-0.1802,-0.1826,-0.1879,-0.1939,-0.1988,-0.1998,-0.2059,-0.2104,-0.2115,-0.2134,-0.2135,-0.2148,-0.2154,-0.2104,-0.2103,-0.2048,-0.212,-0.1966,-0.1952,-0.2154,-0.2156,-0.2157,-0.2027,0,-0.1711,-0.1739,-0.1764,-0.1814,-0.1838,-0.1885,-0.1937,-0.1997,-0.2038,-0.2088,-0.2125,-0.2173,-0.2167,-0.2191,-0.2212,-0.217,-0.217,-0.2187,-0.2082,-0.2078,-0.1942,-0.1954,-0.1839,-0.1706,-0.2028,-0.2028,-0.2029,0,-0.1705,-0.1728,-0.177,-0.1855,-0.1873,-0.1911,-0.202,-0.2071,-0.2155,-0.2186,-0.2257,-0.2275,-0.2327,-0.2296,-0.2279,-0.2284,-0.2227,-0.2178,-0.2172,-0.2023,-0.193,-0.1724,-0.1696,-0.203,-0.203,-0.203,-0.203,0,-0.1684,-0.1743,-0.1782,-0.1804,-0.1889,-0.1941,-0.2,-0.2097,-0.2135,-0.2257,-0.2274,-0.2357,-0.2347,-0.2345,-0.2257,-0.2277,-0.2175,-0.2186,-0.1991,-0.1975,-0.1858,-0.1829,-0.2184,-0.2184,-0.2184,-0.2185,-0.2185,0,-0.1677,-0.1708,-0.1774,-0.1792,-0.1857,-0.1938,-0.2018,-0.2097,-0.217,-0.2188,-0.2321,-0.2318,-0.2359,-0.2303,-0.2261,-0.2097,-0.218,-0.2006,-0.1949,-0.1864,-0.1839,-0.2123,-0.2118,-0.218,-0.2181,-0.2182,-0.2183,0,-0.1636,-0.1677,-0.172,-0.1808,-0.184,-0.1887,-0.1981,-0.2023,-0.2124,-0.2144,-0.2176,-0.2251,-0.2186,-0.2168,-0.2101,-0.2043,-0.1947,-0.1869,-0.1725,-0.1656,-0.174,-0.1739,-0.1667,-0.1661,-0.1655,-0.1651,-0.1647,0,-0.1616,-0.1627,-0.17,-0.1721,-0.1756,-0.1833,-0.1864,-0.1976,-0.1989,-0.2066,-0.2033,-0.203,-0.195,-0.1801,-0.1743,-0.1625,-0.1735,-0.1452,-0.1503,-0.1743,-0.1696,-0.1703,-0.1709,-0.1343,-0.1337,-0.1332,-0.1328,0,-0.1568,-0.1585,-0.1616,-0.1641,-0.1676,-0.1705,-0.175,-0.172,-0.181,-0.1819,-0.1748,-0.1701,-0.1604,-0.1448,-0.1346,-0.128,-0.1479,-0.1346,-0.1651,-0.1487,-0.1426,-0.1383,-0.1403,-0.1286,-0.129,-0.1293,-0.1295,-0.1297,-0.152,-0.1515,-0.1538,-0.1558,-0.1579,-0.1525,-0.1493,-0.1504,-0.1457,-0.1429,-0.144,-0.1365,-0.1342,-0.1128,-0.1023,-0.0993,-0.1108,-0.1098,-0.1118,-0.1143,-0.1125,-0.1058,-0.084,-0.0842,-0.0843,-0.0844,-0.0846,0,-0.1453,-0.145,-0.1456,-0.144,-0.1389,-0.146,-0.1378,-0.1311,-0.1187,-0.1203,-0.1143,-0.0974,-0.0857,-0.0861,-0.0741,-0.0684,-0.0739,-0.0656,-0.0765,-0.0805,-0.0841,-0.0815,-0.0445,-0.0444,-0.0443,-0.0442,0,0,-0.1421,-0.1388,-0.1377,-0.1256,-0.1248,-0.1135,-0.106,-0.0977,-0.0935,-0.083,-0.0822,-0.0887,-0.0855,-0.0685,-0.0609,-0.0523,-0.0671,-0.0482,-0.0803,-0.0974,-0.101,-0.1086,-0.1087,0,0,0,0,0]},{"header":{"parameterUnit":"m.s-1","parameterCategory":2,"la1":30.2991,"la2":30.254,"lo1":-89.0895,"lo2":-89.0444,"dy":0.0017,"dx":0.0017,"nx":28,"ny":28,"refTime":"2024-03-27T03:00:00:Z","depth":"2","parameterNumber":3,"parameterNumberName":"V-component_of_CURRENTS"},"data":[0,0,0,0,0,0,0,0,0,0,0,0,0,0,0,0,0,0,0,0,0,0,0,0,0,0,0,0,0,0,0,0,0,0,0,0,0,0,0,0,0,0,0,0,0,0,0,0,0,0,0,0,0,0,0,0,0,0,-0.0292,-0.0291,0,-0.0255,-0.0255,-0.0254,-0.023,-0.0229,-0.0229,-0.0229,-0.0174,-0.0173,-0.0172,0,0,0,0,0,0,0,0,0,0,0,0,0,-0.0314,-0.0314,-0.0292,-0.0291,-0.0291,-0.0255,-0.0255,-0.0254,-0.023,-0.0229,-0.0229,-0.0229,-0.0175,-0.0173,-0.0172,0,0,0,0,0,0,0,0,0,0,0,0,0,-0.0294,-0.0314,-0.0292,-0.0274,-0.0273,-0.0255,-0.0255,-0.0254,-0.023,-0.0229,-0.0229,-0.0229,-0.0175,-0.0173,-0.0172,-0.0164,0,0,-0.0166,-0.0165,0,0,0,0,0,0,0,0,-0.0295,-0.0293,-0.0277,-0.0276,-0.0273,-0.0247,-0.0243,-0.0223,-0.023,-0.0246,-0.0229,-0.0229,-0.0197,-0.0193,-0.0187,-0.0162,-0.0159,-0.0165,-0.0164,-0.0163,-0.0163,0,0,0,0,0,0,0,-0.0296,-0.0294,-0.0277,-0.0277,-0.0275,-0.026,-0.0257,-0.0239,-0.0223,-0.0244,-0.0243,-0.0239,-0.0196,-0.0189,-0.0186,-0.0158,-0.0165,-0.0164,-0.0162,-0.0162,-0.0133,-0.0133,0,0,0,0,0,0,-0.0303,-0.0296,-0.0278,-0.0276,-0.0284,-0.0259,-0.0256,-0.0256,-0.0223,-0.0218,-0.0239,-0.0238,-0.0193,-0.0188,-0.0184,-0.0184,-0.0163,-0.0161,-0.016,-0.0133,-0.0133,-0.0133,0,0,0,0,0,0,-0.0304,-0.0302,-0.028,-0.0285,-0.0281,-0.026,-0.0259,-0.0255,-0.025,-0.022,-0.0214,-0.0239,-0.0192,-0.0186,-0.0173,-0.0181,-0.0161,-0.0159,-0.0132,-0.0133,-0.0133,-0.0177,0,0,0,0,0,0,-0.0304,-0.0302,-0.0306,-0.0286,-0.0281,-0.0275,-0.0259,-0.0254,-0.0248,-0.0246,-0.0218,-0.0212,-0.0192,-0.0176,-0.0171,-0.0178,-0.0157,-0.0132,-0.0132,-0.0133,-0.0175,-0.0179,-0.0182,0,0,0,0,0,-0.0305,-0.031,-0.0307,-0.0305,-0.0287,-0.0276,-0.0272,-0.0255,-0.0249,-0.025,-0.0231,-0.0213,-0.0177,-0.0175,-0.0169,-0.0175,-0.0131,-0.0132,-0.0133,-0.0173,-0.0178,-0.0182,0,0,0,0,0,0,-0.0319,-0.0307,-0.0303,-0.0303,-0.0294,-0.0272,-0.027,-0.026,-0.0246,-0.0245,-0.0216,-0.021,-0.0204,-0.0183,-0.0181,-0.017,-0.0152,-0.0152,-0.0185,-0.0189,-0.0193,-0.0192,-0.0156,0,0,0,0,0,-0.0326,-0.0327,-0.0313,-0.0314,-0.0311,-0.0293,-0.0287,-0.0277,-0.0261,-0.0255,-0.0236,-0.0216,-0.0203,-0.0191,-0.0177,-0.0167,-0.0128,-0.0168,-0.0171,-0.0175,-0.017,-0.0093,-0.0089,-0.0137,-0.0137,-0.0137,0,0,-0.0332,-0.0325,-0.0326,-0.0317,-0.0308,-0.0313,-0.0289,-0.0283,-0.0289,-0.0251,-0.0252,-0.0231,-0.0204,-0.0198,-0.0192,-0.018,-0.015,-0.0176,-0.0179,-0.0172,-0.0094,-0.0089,-0.0084,-0.0137,-0.0137,-0.0137,0,0,-0.0347,-0.034,-0.0348,-0.0343,-0.0334,-0.0327,-0.0329,-0.0313,-0.0306,-0.0301,-0.028,-0.026,-0.0239,-0.022,-0.0208,-0.0221,-0.0176,-0.0221,-0.0233,-0.0159,-0.0154,-0.0149,-0.0129,-0.0122,-0.0218,-0.0218,-0.0218,0,-0.0355,-0.0366,-0.0348,-0.0355,-0.0362,-0.0339,-0.0357,-0.0344,-0.0327,-0.0322,-0.0308,-0.0265,-0.0248,-0.0229,-0.0238,-0.0229,-0.0192,-0.0219,-0.0162,-0.0156,-0.015,-0.0131,-0.0122,-0.022,-0.022,-0.022,-0.022,0,-0.0376,-0.0387,-0.039,-0.0399,-0.0404,-0.0411,-0.0401,-0.0402,-0.0391,-0.0371,-0.0347,-0.0307,-0.0275,-0.0273,-0.0261,-0.022,-0.0212,-0.0178,-0.0148,-0.0147,-0.0128,-0.0118,-0.0224,-0.0223,-0.0222,-0.0222,0,0,-0.0394,-0.0405,-0.0409,-0.0434,-0.0431,-0.0446,-0.0453,-0.0456,-0.0453,-0.0417,-0.0397,-0.0369,-0.0325,-0.0308,-0.0276,-0.0218,-0.0165,-0.0183,-0.0178,-0.0162,-0.003,-0.0079,-0.0073,-0.0107,-0.0104,-0.0103,-0.0047,0,-0.0421,-0.0455,-0.0453,-0.0501,-0.0524,-0.0517,-0.0529,-0.0524,-0.0493,-0.0463,-0.0403,-0.0354,-0.0342,-0.0303,-0.0254,-0.0183,-0.0134,-0.0185,-0.0036,-0.0032,-0.0071,-0.0061,-0.0049,-0.0001,-0.0037,-0.0035,-0.0034,0,-0.0448,-0.0471,-0.0518,-0.0568,-0.0579,-0.0603,-0.0624,-0.0626,-0.0569,-0.0531,-0.0461,-0.0383,-0.0312,-0.0273,-0.0155,-0.0183,-0.0114,-0.0055,-0.0051,-0.0068,-0.0061,-0.0,0.0019,-0.0017,-0.0018,-0.002,-0.0021,0,-0.0485,-0.0528,-0.0576,-0.0588,-0.0624,-0.0655,-0.0678,-0.0649,-0.0642,-0.0541,-0.0485,-0.0391,-0.032,-0.0213,-0.0115,-0.0109,0.0019,0.0049,0.0064,0.0059,0.0112,0.0108,0.0157,0.0157,0.0157,0.0157,0.0157,0,-0.052,-0.0563,-0.0601,-0.0627,-0.07,-0.0703,-0.0743,-0.0732,-0.0678,-0.0653,-0.0511,-0.0448,-0.0288,-0.0193,-0.011,-0.0019,0.0026,0.0061,0.0083,0.0089,0.0083,0.0111,0.0105,0.0159,0.0159,0.0158,0.0158,0,-0.0553,-0.0569,-0.0633,-0.0688,-0.0719,-0.0768,-0.081,-0.0811,-0.0739,-0.0688,-0.0635,-0.0481,-0.0358,-0.0229,-0.0066,-0.0018,0.0087,0.0114,0.0071,0.0087,0.0073,0.0064,0.0149,0.0148,0.0147,0.0146,0.0146,0,-0.0571,-0.0601,-0.0686,-0.0734,-0.0767,-0.0834,-0.0869,-0.0851,-0.0827,-0.0718,-0.0682,-0.053,-0.0436,-0.025,-0.0107,0.003,0.0054,0.0115,0.0133,0.0066,0.0079,0.0071,0.0064,0.0175,0.0175,0.0175,0.0175,0,-0.0608,-0.0631,-0.0685,-0.0783,-0.0846,-0.0899,-0.0937,-0.0926,-0.0873,-0.0812,-0.072,-0.0633,-0.0447,-0.0278,-0.0102,-0.002,0.0091,0.0111,0.0105,0.0154,0.0091,0.0103,0.0095,0.0172,0.0173,0.0173,0.0173,0.0173,-0.0633,-0.0678,-0.0746,-0.0841,-0.0902,-0.0929,-0.0944,-0.0935,-0.0907,-0.078,-0.0757,-0.0598,-0.0456,-0.0181,-0.0061,0.0073,0.0057,0.0127,0.013,0.0132,0.0104,0.004,0.0105,0.0105,0.0105,0.0105,0.0104,0,-0.0658,-0.0714,-0.0803,-0.0886,-0.0931,-0.0964,-0.096,-0.0923,-0.0865,-0.0774,-0.0688,-0.0498,-0.0317,-0.0158,0.0048,0.0136,0.0166,0.0163,0.0201,0.0201,0.0201,0.0179,0.02,0.02,0.0201,0.0201,0,0,-0.0674,-0.0753,-0.0801,-0.0887,-0.0935,-0.0936,-0.0916,-0.0855,-0.0768,-0.066,-0.0549,-0.0441,-0.0282,-0.0111,0.0005,0.0122,0.0143,0.0135,0.0046,0.0076,0.0077,0.0163,0.0124,0,0,0,0,0]}],[{"header":{"parameterUnit":"m.s-1","parameterCategory":2,"la1":30.2991,"la2":30.254,"lo1":-89.0895,"lo2":-89.0444,"dy":0.0017,"dx":0.0017,"nx":28,"ny":28,"refTime":"2024-03-27T03:00:00:Z","depth":"4","parameterNumber":2,"parameterNumberName":"U-component_of_CURRENTS"},"data":[0,0,0,0,0,0,0,0,0,0,0,0,0,0,0,0,0,0,0,0,0,0,0,0,0,0,0,0,0,0,0,0,0,0,0,0,0,0,0,0,0,0,0,0,0,0,0,0,0,0,0,0,0,0,0,0,0,0,-0.1177,-0.1177,0,-0.1216,-0.1217,-0.1217,-0.1244,-0.1244,-0.1245,-0.1245,-0.1309,-0.1311,-0.1312,0,0,0,0,0,0,0,0,0,0,0,0,0,-0.1123,-0.1124,-0.1177,-0.1177,-0.1178,-0.1216,-0.1217,-0.1217,-0.1244,-0.1244,-0.1245,-0.1245,-0.1309,-0.131,-0.1312,0,0,0,0,0,0,0,0,0,0,0,0,0,-0.1152,-0.1124,-0.1177,-0.1196,-0.1198,-0.1216,-0.1217,-0.1217,-0.1244,-0.1244,-0.1245,-0.1245,-0.1308,-0.131,-0.1312,-0.1319,0,0,-0.1319,-0.132,0,0,0,0,0,0,0,0,-0.115,-0.1154,-0.1193,-0.1195,-0.1197,-0.1226,-0.1221,-0.1253,-0.1244,-0.1226,-0.1245,-0.1245,-0.1284,-0.1288,-0.1293,-0.1322,-0.1325,-0.1319,-0.1321,-0.1322,-0.1322,0,0,0,0,0,0,0,-0.1148,-0.1153,-0.1192,-0.1193,-0.1196,-0.1203,-0.1207,-0.1227,-0.1252,-0.1228,-0.123,-0.1235,-0.1285,-0.1291,-0.1295,-0.1326,-0.1319,-0.1321,-0.1323,-0.1324,-0.1418,-0.1419,0,0,0,0,0,0,-0.1144,-0.1151,-0.1191,-0.1193,-0.1175,-0.1203,-0.1208,-0.1216,-0.1252,-0.1257,-0.1235,-0.1236,-0.1287,-0.1293,-0.1298,-0.1359,-0.1322,-0.1324,-0.1325,-0.1417,-0.1418,-0.1419,0,0,0,0,0,0,-0.1143,-0.1148,-0.1189,-0.1173,-0.1179,-0.1204,-0.1212,-0.1217,-0.1243,-0.1257,-0.1263,-0.1259,-0.1288,-0.1295,-0.1334,-0.136,-0.1325,-0.1327,-0.1415,-0.1417,-0.1419,-0.145,0,0,0,0,0,0,-0.1141,-0.1147,-0.1162,-0.1173,-0.118,-0.1212,-0.1212,-0.1217,-0.1245,-0.1248,-0.128,-0.1285,-0.1289,-0.133,-0.1336,-0.1363,-0.1329,-0.1414,-0.1416,-0.1418,-0.1447,-0.1452,-0.1457,0,0,0,0,0,-0.1139,-0.1154,-0.1163,-0.1168,-0.1196,-0.1213,-0.1218,-0.1236,-0.1246,-0.1261,-0.1284,-0.1285,-0.1348,-0.1333,-0.1339,-0.1367,-0.1413,-0.1416,-0.1418,-0.1445,-0.1451,-0.1456,0,0,0,0,0,0,-0.1138,-0.1158,-0.1168,-0.1189,-0.1207,-0.1218,-0.1237,-0.1248,-0.1278,-0.1288,-0.1299,-0.1306,-0.1351,-0.1355,-0.1338,-0.1401,-0.1381,-0.1385,-0.14,-0.1406,-0.141,-0.1383,-0.133,0,0,0,0,0,-0.1144,-0.1164,-0.118,-0.1199,-0.121,-0.1228,-0.1242,-0.1255,-0.1276,-0.129,-0.1311,-0.1337,-0.1363,-0.1382,-0.1402,-0.1437,-0.1417,-0.146,-0.1464,-0.1468,-0.1451,-0.1443,-0.1444,-0.1428,-0.1428,-0.1428,0,0,-0.115,-0.1164,-0.1176,-0.1201,-0.1218,-0.1237,-0.1238,-0.1266,-0.1288,-0.1293,-0.1337,-0.1356,-0.1376,-0.1414,-0.1435,-0.1425,-0.1466,-0.1472,-0.1475,-0.1455,-0.1445,-0.1447,-0.1448,-0.143,-0.143,-0.1429,0,0,-0.1164,-0.1184,-0.1204,-0.1221,-0.125,-0.1259,-0.1272,-0.1296,-0.1316,-0.1355,-0.1366,-0.1397,-0.1441,-0.1454,-0.1467,-0.1511,-0.1491,-0.1527,-0.1531,-0.1524,-0.1524,-0.1524,-0.1512,-0.151,-0.153,-0.153,-0.153,0,-0.1174,-0.1196,-0.1213,-0.1235,-0.1249,-0.1271,-0.1291,-0.1314,-0.135,-0.1357,-0.1377,-0.1427,-0.1456,-0.1483,-0.1503,-0.1521,-0.1506,-0.1508,-0.1528,-0.1527,-0.1527,-0.1514,-0.1512,-0.1532,-0.1532,-0.1532,-0.1531,0,-0.1194,-0.1221,-0.1234,-0.1268,-0.1285,-0.1308,-0.1333,-0.1357,-0.1385,-0.1396,-0.1434,-0.1468,-0.1487,-0.1517,-0.1528,-0.1545,-0.1532,-0.1533,-0.1508,-0.153,-0.1515,-0.1513,-0.1535,-0.1534,-0.1533,-0.1533,0,0,-0.1188,-0.124,-0.1246,-0.1259,-0.1304,-0.131,-0.1351,-0.1372,-0.137,-0.1427,-0.1425,-0.1497,-0.1498,-0.1512,-0.1533,-0.154,-0.1546,-0.1537,-0.1536,-0.1514,-0.152,-0.1409,-0.1395,-0.1547,-0.1546,-0.1546,-0.1515,0,-0.12,-0.124,-0.1263,-0.1293,-0.1311,-0.1336,-0.1355,-0.1377,-0.1395,-0.1398,-0.1441,-0.1453,-0.1502,-0.1506,-0.1526,-0.1536,-0.1538,-0.1553,-0.151,-0.1508,-0.1398,-0.1388,-0.1544,-0.1513,-0.1512,-0.1511,-0.1511,0,-0.1205,-0.1231,-0.1271,-0.1288,-0.1294,-0.1315,-0.132,-0.1339,-0.1352,-0.1359,-0.1383,-0.14,-0.1436,-0.1462,-0.1494,-0.1499,-0.1508,-0.1517,-0.1516,-0.139,-0.1391,-0.1484,-0.1506,-0.1506,-0.1507,-0.1507,-0.1507,0,-0.1176,-0.1223,-0.1254,-0.1268,-0.1302,-0.1313,-0.132,-0.133,-0.1311,-0.1328,-0.1304,-0.1354,-0.1356,-0.1396,-0.1439,-0.1461,-0.1444,-0.1477,-0.1383,-0.1376,-0.1474,-0.1474,-0.1473,-0.1473,-0.1473,-0.1473,-0.1473,0,-0.1163,-0.1182,-0.1245,-0.1258,-0.1254,-0.129,-0.126,-0.1274,-0.1258,-0.1216,-0.1277,-0.1249,-0.1334,-0.1342,-0.1401,-0.1371,-0.1418,-0.1361,-0.135,-0.1491,-0.1493,-0.1472,-0.1473,-0.1472,-0.1472,-0.1472,-0.1472,0,-0.1121,-0.1174,-0.1201,-0.1245,-0.1245,-0.1244,-0.1206,-0.1158,-0.118,-0.1126,-0.1127,-0.1152,-0.117,-0.1236,-0.1278,-0.1284,-0.1295,-0.1271,-0.1399,-0.14,-0.1246,-0.1249,-0.1161,-0.1157,-0.1153,-0.115,-0.1147,0,-0.1101,-0.1122,-0.1174,-0.1166,-0.1186,-0.117,-0.112,-0.1118,-0.1064,-0.1061,-0.1019,-0.1029,-0.1053,-0.1021,-0.1116,-0.1174,-0.1183,-0.1168,-0.1224,-0.121,-0.1209,-0.1218,-0.1226,-0.1141,-0.114,-0.1139,-0.1139,0,-0.1052,-0.1094,-0.1116,-0.1099,-0.1071,-0.0994,-0.0946,-0.0904,-0.0894,-0.0921,-0.088,-0.0895,-0.0886,-0.0947,-0.0968,-0.103,-0.1173,-0.113,-0.1139,-0.1192,-0.1185,-0.119,-0.1202,-0.1125,-0.1127,-0.1129,-0.1129,0,-0.1016,-0.1017,-0.1046,-0.1011,-0.0955,-0.0836,-0.0824,-0.0756,-0.0713,-0.0751,-0.0739,-0.0797,-0.0852,-0.0867,-0.091,-0.0931,-0.095,-0.0951,-0.097,-0.0986,-0.0948,-0.0915,-0.0739,0,0,0,0,0,-0.0969,-0.0953,-0.0928,-0.0866,-0.0791,-0.0744,-0.0695,-0.069,-0.0714,-0.0653,-0.0696,-0.0705,-0.074,-0.0778,-0.0774,-0.085,-0.0959,-0.0841,-0.097,-0.1053,-0.1068,-0.1044,0,0,0,0,0,0,-0.0938,-0.0936,-0.0912,-0.0731,-0.065,-0.0524,-0.0497,-0.0516,-0.0496,-0.0567,-0.0594,-0.0651,-0.0704,-0.0731,-0.0754,-0.0768,-0.0834,-0.089,-0.0888,-0.1045,-0.1058,-0.1071,-0.1051,0,0,0,0,0]},{"header":{"parameterUnit":"m.s-1","parameterCategory":2,"la1":30.2991,"la2":30.254,"lo1":-89.0895,"lo2":-89.0444,"dy":0.0017,"dx":0.0017,"nx":28,"ny":28,"refTime":"2024-03-27T03:00:00:Z","depth":"4","parameterNumber":3,"parameterNumberName":"V-component_of_CURRENTS"},"data":[0,0,0,0,0,0,0,0,0,0,0,0,0,0,0,0,0,0,0,0,0,0,0,0,0,0,0,0,0,0,0,0,0,0,0,0,0,0,0,0,0,0,0,0,0,0,0,0,0,0,0,0,0,0,0,0,0,0,-0.0165,-0.0165,0,-0.0137,-0.0137,-0.0136,-0.0117,-0.0117,-0.0117,-0.0117,-0.0073,-0.0072,-0.0071,0,0,0,0,0,0,0,0,0,0,0,0,0,-0.0176,-0.0176,-0.0165,-0.0165,-0.0164,-0.0137,-0.0137,-0.0136,-0.0117,-0.0117,-0.0117,-0.0117,-0.0073,-0.0072,-0.0071,0,0,0,0,0,0,0,0,0,0,0,0,0,-0.0162,-0.0176,-0.0165,-0.0152,-0.015,-0.0137,-0.0137,-0.0136,-0.0117,-0.0117,-0.0117,-0.0117,-0.0074,-0.0072,-0.0071,-0.0065,0,0,-0.0066,-0.0065,0,0,0,0,0,0,0,0,-0.0163,-0.0162,-0.0154,-0.0153,-0.0151,-0.013,-0.0124,-0.0111,-0.0117,-0.013,-0.0117,-0.0117,-0.0091,-0.0088,-0.0083,-0.0063,-0.0061,-0.0066,-0.0065,-0.0064,-0.0064,0,0,0,0,0,0,0,-0.0164,-0.0163,-0.0154,-0.0154,-0.0152,-0.0138,-0.0136,-0.0122,-0.0112,-0.0129,-0.0127,-0.0124,-0.009,-0.0085,-0.0082,-0.006,-0.0066,-0.0064,-0.0064,-0.0063,-0.005,-0.005,0,0,0,0,0,0,-0.0169,-0.0164,-0.0155,-0.0153,-0.0157,-0.0138,-0.0136,-0.0137,-0.0112,-0.0108,-0.0125,-0.0124,-0.0088,-0.0084,-0.008,-0.0094,-0.0064,-0.0063,-0.0062,-0.0049,-0.005,-0.005,0,0,0,0,0,0,-0.017,-0.0169,-0.0156,-0.0158,-0.0155,-0.0138,-0.014,-0.0137,-0.0134,-0.0109,-0.0105,-0.0126,-0.0087,-0.0083,-0.0074,-0.0091,-0.0062,-0.0061,-0.0048,-0.0049,-0.005,-0.0107,0,0,0,0,0,0,-0.017,-0.0169,-0.0175,-0.0158,-0.0155,-0.0154,-0.014,-0.0136,-0.0133,-0.0131,-0.0108,-0.0104,-0.0087,-0.0077,-0.0073,-0.0089,-0.0059,-0.0048,-0.0049,-0.005,-0.0104,-0.011,-0.0114,0,0,0,0,0,-0.0171,-0.0177,-0.0175,-0.0174,-0.0162,-0.0154,-0.0152,-0.0139,-0.0133,-0.0135,-0.0121,-0.0105,-0.0081,-0.0076,-0.0071,-0.0087,-0.0047,-0.0048,-0.005,-0.0102,-0.0109,-0.0114,0,0,0,0,0,0,-0.0184,-0.0175,-0.0173,-0.0176,-0.017,-0.0151,-0.0152,-0.0143,-0.0134,-0.0133,-0.0109,-0.0104,-0.0105,-0.0086,-0.0081,-0.0086,-0.0063,-0.0063,-0.0104,-0.011,-0.0115,-0.014,-0.0058,0,0,0,0,0,-0.019,-0.0194,-0.0182,-0.0187,-0.0184,-0.017,-0.0166,-0.0158,-0.0146,-0.0142,-0.0127,-0.0113,-0.0106,-0.01,-0.0089,-0.0088,-0.0085,-0.0096,-0.0101,-0.0105,-0.0122,-0.0151,-0.0161,-0.0055,-0.0055,-0.0055,0,0,-0.0197,-0.0192,-0.0195,-0.019,-0.0183,-0.019,-0.0167,-0.0164,-0.0176,-0.0138,-0.0148,-0.0129,-0.011,-0.0114,-0.0112,-0.01,-0.0126,-0.0107,-0.0111,-0.0126,-0.0154,-0.0164,-0.0173,-0.0056,-0.0055,-0.0055,0,0,-0.0212,-0.0209,-0.0218,-0.0215,-0.0209,-0.0205,-0.0207,-0.0194,-0.0195,-0.0195,-0.0178,-0.0175,-0.0153,-0.0154,-0.0148,-0.0174,-0.0153,-0.0162,-0.0207,-0.0235,-0.0244,-0.0253,-0.0232,-0.0238,-0.0164,-0.0164,-0.0164,0,-0.0222,-0.0234,-0.0219,-0.0227,-0.0236,-0.0216,-0.0236,-0.0231,-0.0219,-0.0235,-0.0205,-0.0209,-0.0179,-0.021,-0.0207,-0.0188,-0.0183,-0.0186,-0.0243,-0.0252,-0.026,-0.0236,-0.0242,-0.0167,-0.0167,-0.0166,-0.0166,0,-0.0242,-0.0255,-0.0259,-0.0271,-0.0279,-0.0288,-0.0287,-0.0298,-0.0293,-0.0293,-0.0317,-0.0284,-0.0292,-0.0274,-0.0239,-0.0283,-0.0252,-0.0248,-0.0233,-0.0274,-0.0246,-0.0251,-0.0171,-0.017,-0.0169,-0.0169,0,0,-0.0259,-0.0273,-0.0278,-0.0303,-0.0306,-0.0323,-0.0348,-0.0378,-0.0417,-0.0395,-0.0447,-0.0413,-0.04,-0.0393,-0.0361,-0.0368,-0.0386,-0.0326,-0.0326,-0.0312,-0.0416,-0.0336,-0.0333,-0.0397,-0.0399,-0.04,-0.0363,0,-0.0284,-0.0317,-0.0321,-0.0372,-0.0394,-0.0401,-0.0436,-0.0461,-0.0473,-0.0512,-0.0494,-0.0518,-0.0445,-0.0452,-0.0449,-0.0413,-0.0408,-0.0394,-0.0372,-0.0371,-0.0302,-0.0341,-0.0407,-0.0367,-0.0368,-0.0369,-0.037,0,-0.0307,-0.033,-0.0378,-0.0443,-0.0457,-0.0489,-0.0567,-0.0592,-0.0633,-0.0642,-0.0662,-0.0647,-0.065,-0.0585,-0.0555,-0.0549,-0.0485,-0.0446,-0.0445,-0.0361,-0.0303,-0.0323,-0.0379,-0.0379,-0.0378,-0.0377,-0.0377,0,-0.0334,-0.0382,-0.0431,-0.0444,-0.0501,-0.0546,-0.0586,-0.0637,-0.0677,-0.0733,-0.0759,-0.0771,-0.0763,-0.0725,-0.0603,-0.0596,-0.0556,-0.0543,-0.0412,-0.0403,-0.046,-0.0452,-0.0533,-0.0533,-0.0533,-0.0533,-0.0533,0,-0.036,-0.0404,-0.0451,-0.0477,-0.0563,-0.0589,-0.0683,-0.0721,-0.0778,-0.0819,-0.0826,-0.0839,-0.0798,-0.0753,-0.0658,-0.0536,-0.0599,-0.0429,-0.0404,-0.0477,-0.0472,-0.0461,-0.0453,-0.0532,-0.0532,-0.0532,-0.0533,0,-0.0379,-0.0401,-0.0466,-0.054,-0.0574,-0.0635,-0.0733,-0.079,-0.0835,-0.0888,-0.0907,-0.0903,-0.0833,-0.0761,-0.0679,-0.0586,-0.0497,-0.0431,-0.0486,-0.0462,-0.0311,-0.0307,-0.0319,-0.0316,-0.0314,-0.0312,-0.0311,0,-0.0389,-0.0417,-0.0509,-0.0555,-0.0594,-0.0683,-0.0742,-0.0811,-0.0851,-0.0896,-0.0908,-0.0881,-0.0846,-0.0676,-0.06,-0.0453,-0.0408,-0.0368,-0.0368,-0.0323,-0.0298,-0.0297,-0.0295,-0.0307,-0.0306,-0.0306,-0.0305,0,-0.041,-0.044,-0.0492,-0.058,-0.0653,-0.073,-0.0805,-0.0833,-0.0882,-0.0932,-0.0887,-0.0821,-0.0732,-0.0626,-0.0507,-0.0396,-0.0418,-0.0343,-0.0348,-0.0348,-0.0308,-0.0285,-0.0286,-0.0297,-0.0298,-0.0299,-0.0299,0,-0.0425,-0.0464,-0.0527,-0.0609,-0.0684,-0.0733,-0.0786,-0.0809,-0.0848,-0.0874,-0.0844,-0.0774,-0.0749,-0.0591,-0.0481,-0.0375,-0.0346,-0.0312,-0.0318,-0.0326,-0.0332,-0.0284,-0.0256,0,0,0,0,0,-0.0436,-0.048,-0.0554,-0.0629,-0.069,-0.0731,-0.0804,-0.0838,-0.0872,-0.0827,-0.0833,-0.0737,-0.0583,-0.0538,-0.0414,-0.0438,-0.0336,-0.0289,-0.0302,-0.0252,-0.0261,-0.026,0,0,0,0,0,0,-0.0445,-0.0509,-0.0549,-0.0614,-0.0653,-0.072,-0.0754,-0.0784,-0.0755,-0.0774,-0.0694,-0.0683,-0.0541,-0.0638,-0.04,-0.0376,-0.0361,-0.0236,-0.0233,-0.0247,-0.0255,-0.0263,-0.0265,0,0,0,0,0]}]]